| time (UTC) | temp C | wind direction | speed KPH | gust KPH | rain 1hr cm | rain 24hr cm | rain mn cm | humidity % | barometer mb |
| 20260502194522 | 16 | 203 | 3.2 | 12.9 | 0.00 | 0.00 | 0.00 | 35 | 1014.0 |
| 20260502193622 | 17 | 214 | 4.8 | 16.1 | 0.00 | 0.00 | 0.00 | 38 | 1013.9 |
| 20260502192722 | 17 | 262 | 3.2 | 14.5 | 0.00 | 0.00 | 0.00 | 35 | 1013.9 |
| 20260502191822 | 16 | 167 | 1.6 | 9.7 | 0.00 | 0.00 | 0.00 | 37 | 1013.9 |
| 20260502190922 | 16 | 259 | 4.8 | 11.3 | 0.00 | 0.00 | 0.00 | 36 | 1014.0 |
| 20260502190022 | 16 | 219 | 4.8 | 14.5 | 0.00 | 0.00 | 0.00 | 35 | 1014.0 |
| 20260502185422 | 16 | 100 | 3.2 | 8.0 | 0.00 | 0.00 | 0.00 | 36 | 1014.1 |
| 20260502184522 | 16 | 166 | 3.2 | 6.4 | 0.00 | 0.00 | 0.00 | 38 | 1014.5 |
| 20260502183643 | 16 | 245 | 4.8 | 16.1 | 0.00 | 0.00 | 0.00 | 36 | 1014.4 |
| 20260502182743 | 16 | 125 | 3.2 | 11.3 | 0.00 | 0.00 | 0.00 | 42 | 1014.3 |
| 20260502181842 | 16 | 139 | 3.2 | 12.9 | 0.00 | 0.00 | 0.00 | 40 | 1014.5 |
| 20260502180921 | 15 | 181 | 3.2 | 14.5 | 0.00 | 0.00 | 0.00 | 40 | 1014.7 |
| 20260502163621 | 13 | 196 | 3.2 | 9.7 | 0.00 | 0.00 | 0.00 | 43 | 1016.1 |
| 20260502162721 | 13 | 236 | 3.2 | 9.7 | 0.00 | 0.00 | 0.00 | 40 | 1016.2 |
| 20260502161821 | 13 | 303 | 4.8 | 19.3 | 0.00 | 0.00 | 0.00 | 39 | 1016.4 |
| 20260502160921 | 13 | 139 | 3.2 | 9.7 | 0.00 | 0.00 | 0.00 | 39 | 1016.5 |
| 20260502151821 | 11 | 59 | 3.2 | 9.7 | 0.00 | 0.00 | 0.00 | 50 | 1016.7 |
| 20260502150921 | 11 | 96 | 1.6 | 9.7 | 0.00 | 0.00 | 0.00 | 53 | 1016.7 |
| 20260502123641 | 8 | 115 | 1.6 | 6.4 | 0.00 | 0.00 | 0.00 | 58 | 1016.5 |
| 20260502122720 | 8 | 239 | 1.6 | 8.0 | 0.00 | 0.00 | 0.00 | 57 | 1016.7 |
| 20260502121820 | 8 | 1 | 1.6 | 11.3 | 0.00 | 0.00 | 0.00 | 54 | 1016.8 |
| 20260502120920 | 8 | 254 | 1.6 | 9.7 | 0.00 | 0.00 | 0.00 | 54 | 1016.7 |
| 20260502115420 | 8 | 254 | 0.0 | 8.0 | 0.00 | 0.00 | 0.00 | 62 | 1016.5 |
| 20260502114520 | 8 | 244 | 0.0 | 1.6 | 0.00 | 0.00 | 0.00 | 57 | 1016.5 |
| 20260502113620 | 8 | 241 | 0.0 | 3.2 | 0.00 | 0.00 | 0.00 | 62 | 1016.3 |
| 20260502112720 | 8 | 254 | 0.0 | 3.2 | 0.00 | 0.00 | 0.00 | 54 | 1016.1 |
| 20260502111820 | 8 | 260 | 0.0 | 1.6 | 0.00 | 0.00 | 0.00 | 56 | 1016.2 |
| 20260502110920 | 8 | 274 | 1.6 | 4.8 | 0.00 | 0.00 | 0.00 | 58 | 1016.3 |
| 20260502110041 | 8 | 52 | 1.6 | 6.4 | 0.00 | 0.00 | 0.00 | 54 | 1016.2 |
| 20260502105420 | 8 | 263 | 0.0 | 4.8 | 0.00 | 0.00 | 0.00 | 54 | 1016.1 |
| 20260502104520 | 8 | 218 | 1.6 | 6.4 | 0.00 | 0.00 | 0.00 | 52 | 1016.1 |
| 20260502103620 | 8 | 213 | 1.6 | 8.0 | 0.00 | 0.00 | 0.00 | 49 | 1016.2 |
| 20260502101826 | 9 | 290 | 1.6 | 6.4 | 0.00 | 0.00 | 0.00 | 47 | 1016.2 |
| 20260502100926 | 9 | 275 | 3.2 | 9.7 | 0.00 | 0.00 | 0.00 | 48 | 1016.2 |
| 20260502090946 | 9 | 238 | 1.6 | 11.3 | 0.00 | 0.00 | 0.00 | 56 | 1016.1 |
| 20260502070925 | 10 | 310 | 3.2 | 17.7 | 0.00 | 0.00 | 0.00 | 68 | 1015.6 |
| 20260502070025 | 10 | 239 | 1.6 | 11.3 | 0.00 | 0.00 | 0.00 | 67 | 1015.7 |
| 20260502065425 | 10 | 300 | 1.6 | 8.0 | 0.00 | 0.00 | 0.00 | 66 | 1015.8 |
| 20260502064524 | 10 | 298 | 1.6 | 8.0 | 0.00 | 0.00 | 0.00 | 68 | 1015.7 |
| 20260502063625 | 11 | 4 | 3.2 | 8.0 | 0.00 | 0.00 | 0.00 | 64 | 1015.8 |
| 20260502062745 | 11 | 262 | 1.6 | 8.0 | 0.00 | 0.00 | 0.00 | 64 | 1015.8 |
| 20260502061846 | 11 | 246 | 1.6 | 9.7 | 0.00 | 0.00 | 0.00 | 65 | 1015.9 |
| 20260502060925 | 11 | 242 | 1.6 | 9.7 | 0.00 | 0.00 | 0.00 | 64 | 1015.9 |
| 20260502060024 | 11 | 326 | 1.6 | 4.8 | 0.00 | 0.00 | 0.00 | 64 | 1016.1 |
| 20260502055424 | 11 | 281 | 0.0 | 4.8 | 0.00 | 0.00 | 0.00 | 64 | 1016.1 |
| 20260502054524 | 11 | 301 | 1.6 | 6.4 | 0.00 | 0.00 | 0.00 | 64 | 1015.8 |
| 20260502053624 | 11 | 296 | 0.0 | 8.0 | 0.00 | 0.00 | 0.00 | 63 | 1015.8 |
| 20260502052725 | 11 | 321 | 0.0 | 8.0 | 0.00 | 0.00 | 0.00 | 62 | 1015.8 |
| 20260502051824 | 11 | 12 | 1.6 | 8.0 | 0.00 | 0.00 | 0.00 | 62 | 1015.9 |
| 20260502050924 | 12 | 101 | 1.6 | 8.0 | 0.00 | 0.00 | 0.00 | 63 | 1015.8 |
| 20260502050024 | 12 | 41 | 1.6 | 9.7 | 0.00 | 0.00 | 0.00 | 67 | 1015.9 |
| 20260502045424 | 12 | 117 | 3.2 | 9.7 | 0.00 | 0.00 | 0.00 | 64 | 1015.9 |
| 20260502044524 | 12 | 109 | 0.0 | 4.8 | 0.00 | 0.00 | 0.00 | 68 | 1015.8 |
| 20260502043645 | 12 | 98 | 1.6 | 6.4 | 0.00 | 0.00 | 0.00 | 65 | 1015.8 |
| 20260502042724 | 12 | 50 | 1.6 | 6.4 | 0.00 | 0.00 | 0.00 | 66 | 1015.5 |
| 20260502041824 | 13 | 192 | 3.2 | 11.3 | 0.00 | 0.00 | 0.00 | 65 | 1015.6 |
| 20260502040924 | 13 | 281 | 3.2 | 11.3 | 0.00 | 0.00 | 0.00 | 63 | 1015.7 |
| 20260502040025 | 13 | 340 | 1.6 | 6.4 | 0.00 | 0.00 | 0.00 | 63 | 1015.6 |
| 20260502035424 | 13 | 288 | 1.6 | 6.4 | 0.00 | 0.00 | 0.00 | 63 | 1015.5 |
| 20260502034524 | 13 | 278 | 1.6 | 4.8 | 0.00 | 0.00 | 0.00 | 64 | 1015.5 |
| 20260502033624 | 13 | 316 | 1.6 | 4.8 | 0.00 | 0.00 | 0.00 | 64 | 1015.5 |
| 20260502032724 | 13 | 223 | 0.0 | 3.2 | 0.00 | 0.00 | 0.00 | 64 | 1015.4 |
| 20260502031824 | 13 | 169 | 1.6 | 4.8 | 0.00 | 0.00 | 0.00 | 62 | 1015.2 |
| 20260502030924 | 14 | 230 | 1.6 | 6.4 | 0.00 | 0.00 | 0.00 | 60 | 1015.2 |
| 20260502030024 | 14 | 262 | 1.6 | 4.8 | 0.00 | 0.00 | 0.00 | 59 | 1015.0 |
| 20260502025445 | 14 | 272 | 1.6 | 4.8 | 0.00 | 0.00 | 0.00 | 58 | 1015.2 |
| 20260502024524 | 15 | 273 | 3.2 | 8.0 | 0.00 | 0.00 | 0.00 | 55 | 1015.2 |
| 20260502023623 | 15 | 291 | 3.2 | 9.7 | 0.00 | 0.00 | 0.00 | 54 | 1015.0 |
| 20260502022724 | 15 | 254 | 1.6 | 9.7 | 0.00 | 0.00 | 0.00 | 58 | 1014.6 |
| 20260502021844 | 15 | 261 | 1.6 | 6.4 | 0.00 | 0.00 | 0.00 | 57 | 1014.6 |
| 20260502020923 | 15 | 303 | 1.6 | 6.4 | 0.00 | 0.00 | 0.00 | 58 | 1014.2 |
| 20260502020045 | 15 | 280 | 1.6 | 6.4 | 0.00 | 0.00 | 0.00 | 60 | 1013.9 |
| 20260502015423 | 15 | 307 | 3.2 | 9.7 | 0.00 | 0.00 | 0.00 | 60 | 1013.9 |
| 20260502014523 | 15 | 355 | 3.2 | 9.7 | 0.00 | 0.00 | 0.00 | 61 | 1013.7 |
| 20260502013624 | 15 | 335 | 3.2 | 8.0 | 0.00 | 0.00 | 0.00 | 61 | 1013.6 |
| 20260502012744 | 15 | 349 | 3.2 | 6.4 | 0.00 | 0.00 | 0.00 | 60 | 1013.6 |
| 20260502011824 | 15 | 329 | 3.2 | 9.7 | 0.00 | 0.00 | 0.00 | 60 | 1013.3 |
| 20260502010923 | 15 | 321 | 1.6 | 4.8 | 0.00 | 0.00 | 0.00 | 61 | 1013.2 |
| 20260502010023 | 15 | 329 | 1.6 | 9.7 | 0.00 | 0.00 | 0.00 | 59 | 1013.1 |
| 20260502005423 | 15 | 349 | 1.6 | 4.8 | 0.00 | 0.00 | 0.00 | 61 | 1013.1 |
| 20260502004523 | 15 | 359 | 0.0 | 4.8 | 0.00 | 0.00 | 0.00 | 59 | 1012.8 |
| 20260502003623 | 15 | 309 | 1.6 | 8.0 | 0.00 | 0.00 | 0.00 | 57 | 1012.8 |
| 20260502002744 | 16 | 316 | 3.2 | 8.0 | 0.00 | 0.00 | 0.00 | 56 | 1012.5 |
| 20260502001823 | 16 | 318 | 1.6 | 9.7 | 0.00 | 0.00 | 0.00 | 55 | 1012.4 |
| 20260502000923 | 16 | 323 | 3.2 | 11.3 | 0.00 | 0.00 | 0.00 | 55 | 1012.3 |
| 20260502000023 | 16 | 283 | 1.6 | 8.0 | 0.00 | 0.00 | 0.00 | 54 | 1012.0 |
| 20260501235444 | 16 | 277 | 1.6 | 6.4 | 0.00 | 0.00 | 0.00 | 54 | 1011.8 |
| 20260501234523 | 16 | 305 | 1.6 | 6.4 | 0.00 | 0.00 | 0.00 | 55 | 1011.7 |
| 20260501233623 | 16 | 252 | 1.6 | 6.4 | 0.00 | 0.00 | 0.00 | 53 | 1011.7 |
| 20260501232723 | 17 | 203 | 1.6 | 6.4 | 0.00 | 0.00 | 0.00 | 54 | 1011.6 |
| 20260501231823 | 17 | 240 | 1.6 | 8.0 | 0.00 | 0.00 | 0.00 | 51 | 1011.7 |
| 20260501230923 | 17 | 208 | 3.2 | 8.0 | 0.00 | 0.00 | 0.00 | 51 | 1011.7 |
| 20260501230023 | 17 | 178 | 4.8 | 16.1 | 0.00 | 0.00 | 0.00 | 51 | 1011.7 |
| 20260501225422 | 17 | 172 | 6.4 | 20.9 | 0.00 | 0.00 | 0.00 | 49 | 1011.7 |
| 20260501224522 | 18 | 188 | 4.8 | 11.3 | 0.00 | 0.00 | 0.00 | 48 | 1011.8 |
| 20260501223643 | 18 | 174 | 3.2 | 14.5 | 0.00 | 0.00 | 0.00 | 48 | 1011.7 |
| 20260501222722 | 19 | 169 | 3.2 | 12.9 | 0.00 | 0.00 | 0.00 | 46 | 1011.7 |
| 20260501221822 | 18 | 161 | 4.8 | 16.1 | 0.00 | 0.00 | 0.00 | 46 | 1011.8 |
| 20260501220922 | 18 | 160 | 6.4 | 16.1 | 0.00 | 0.00 | 0.00 | 44 | 1011.8 |
| 20260501220022 | 18 | 171 | 8.0 | 27.4 | 0.00 | 0.00 | 0.00 | 45 | 1011.9 |
| 20260501215443 | 18 | 167 | 8.0 | 27.4 | 0.00 | 0.00 | 0.00 | 46 | 1011.8 |
| 20260501214522 | 18 | 160 | 6.4 | 17.7 | 0.00 | 0.00 | 0.00 | 45 | 1011.9 |
| 20260501213622 | 18 | 163 | 8.0 | 20.9 | 0.00 | 0.00 | 0.00 | 44 | 1012.0 |
| 20260501212722 | 18 | 165 | 9.7 | 24.1 | 0.00 | 0.00 | 0.00 | 44 | 1012.1 |
| 20260501211822 | 18 | 164 | 9.7 | 29.0 | 0.00 | 0.00 | 0.00 | 46 | 1012.2 |
| 20260501210922 | 18 | 162 | 9.7 | 25.7 | 0.00 | 0.00 | 0.00 | 46 | 1012.2 |
| 20260501210022 | 18 | 157 | 6.4 | 17.7 | 0.00 | 0.00 | 0.00 | 45 | 1012.3 |
| 20260501205422 | 18 | 167 | 6.4 | 17.7 | 0.00 | 0.00 | 0.00 | 44 | 1012.4 |
| 20260501204543 | 18 | 160 | 6.4 | 19.3 | 0.00 | 0.00 | 0.00 | 47 | 1012.4 |
| 20260501203622 | 18 | 183 | 4.8 | 14.5 | 0.00 | 0.00 | 0.00 | 45 | 1012.5 |
| 20260501202743 | 18 | 166 | 6.4 | 19.3 | 0.00 | 0.00 | 0.00 | 49 | 1012.8 |
| 20260501201843 | 18 | 169 | 6.4 | 24.1 | 0.00 | 0.00 | 0.00 | 47 | 1012.9 |
| 20260501200922 | 18 | 166 | 6.4 | 17.7 | 0.00 | 0.00 | 0.00 | 44 | 1013.0 |
| 20260501200022 | 18 | 168 | 8.0 | 25.7 | 0.00 | 0.00 | 0.00 | 47 | 1013.2 |
| 20260501195422 | 18 | 172 | 8.0 | 25.7 | 0.00 | 0.00 | 0.00 | 46 | 1013.2 |